Change the Weather History Date:

Thursday, September 26, 2013

  Actual Average Record
Temperature  
Mean Temperature 72 °F -  
Max Temperature 81 °F 78 °F 84 °F (2002)
Min Temperature 64 °F 64 °F 32 °F (2005)
Cooling Degree Days 8    
Growing Degree Days 22 (Base 50)    
Moisture  
Dew Point 65 °F    
Average Humidity 79    
Maximum Humidity 94    
Minimum Humidity 54    
Precipitation  
Precipitation 0.43 in 0.44 in - ()
Sea Level Pressure  
Sea Level Pressure 29.93 in    
Wind  
Wind Speed 5 mph ()    
Max Wind Speed 14 mph    
Max Gust Speed -    
Visibility 7.0 miles    
Events Rain , Thunderstorm    
Averages and records for this station are not official NWS values.
T = Trace of Precipitation, MM = Missing Value Source: Averaged Metar Reports

Daily Weather History Graph

Daily Weather History Graph

Search for Another Location

Airport or City:

Trip Planner

Search our weather history database for the weather conditions in past years. The results will help you decide how hot, cold, wet, or windy it might be!

Date:

Astronomy

Sep. 26, 2013 Rise Set
Actual Time 5:25 AM CST 5:30 PM CST
Civil Twilight 5:04 AM CST 5:51 PM CST
Nautical Twilight 4:40 AM CST 6:15 PM CST
Astronomical Twilight 4:16 AM CST 6:39 PM CST
Moon 11:19 PM CST (9/26) 11:23 AM CST (9/26)
Length of Visible Light 12h 46m
Length of Day
12h 04m
Waning Gibbous, 54% of the Moon is Illuminated
Sep 26
Waning Gibbous
Sep 26
Last Quarter
Oct 4
New
Oct 11
First Quarter
Oct 18
Full

Hourly Weather History & Observations

Time (CST) Temp. Heat Index Dew Point Humidity Pressure Visibility Wind Dir Wind Speed Gust Speed Precip Events Conditions
12:00 AM 70 °F - 67 °F 86% 29.82 in 12 mi NE 2.3 mph - -   Partly Cloudy
12:00 AM 69.8 °F - 66.2 °F 88% 29.97 in 6.2 mi NE 2.3 mph - N/A   Mostly Cloudy
1:00 AM 69.8 °F - 66.2 °F 88% 29.97 in 6.2 mi NE 4.6 mph - N/A   Mostly Cloudy
2:00 AM 69.8 °F - 64.4 °F 83% 29.95 in 6.2 mi NE 9.2 mph - N/A   Mostly Cloudy
3:00 AM 69 °F - 63 °F 76% 29.77 in 12 mi ENE 6.9 mph - -   Scattered Clouds
3:00 AM 68.0 °F - 62.6 °F 83% 29.94 in 6.2 mi ENE 6.9 mph - N/A   Scattered Clouds
4:00 AM 68.0 °F - 62.6 °F 83% 29.94 in - NNE 3.5 mph - N/A   Clear
5:00 AM 66.2 °F - 60.8 °F 83% 29.94 in - NNE 5.8 mph - N/A   Clear
6:00 AM 67 °F - 62 °F 79% 29.80 in 12 mi ESE 5.8 mph - -   Clear
6:00 AM 66.2 °F - 62.6 °F 88% 29.95 in - ESE 5.8 mph - N/A   Clear
7:00 AM 75.2 °F - 62.6 °F 65% 29.99 in - Calm Calm - N/A   Clear
8:00 AM 77.0 °F - 62.6 °F 61% 30.02 in 6.2 mi West 3.5 mph - N/A   Scattered Clouds
9:00 AM 78 °F - 64 °F 54% 29.85 in 12 mi SW 3.5 mph - -   Scattered Clouds
10:00 AM 80.6 °F 82.3 °F 64.4 °F 58% 30.02 in 6.2 mi SW 4.6 mph - N/A   Scattered Clouds
11:00 AM 80.6 °F 82.7 °F 66.2 °F 61% 30.00 in 6.2 mi SW 8.1 mph - N/A   Scattered Clouds
12:00 PM 81 °F - 68 °F 56% 29.80 in 12 mi WSW 8.1 mph - -   Partly Cloudy
12:00 PM 80.6 °F 83.2 °F 68.0 °F 65% 29.96 in 6.2 mi WSW 8.1 mph - N/A   Scattered Clouds
1:00 PM 77.0 °F - 69.8 °F 78% 29.94 in 6.2 mi WSW 13.8 mph - N/A   Scattered Clouds
2:00 PM 75.2 °F - 68.0 °F 78% 29.94 in 3.1 mi WSW 12.7 mph - N/A Rain , Thunderstorm Light Thunderstorms and Rain
3:00 PM 71 °F - 67 °F 85% 29.81 in 2 mi SE 6.9 mph - - Rain Light Rain
3:00 PM 69.8 °F - 68.0 °F 94% - 1.9 mi SE 6.9 mph - N/A Rain Light Rain
4:00 PM 69.8 °F - 68.0 °F 94% - 1.9 mi SSE 2.3 mph - N/A Rain Light Rain
4:45 PM 69.8 °F - 68.0 °F 94% 29.96 in 5.0 mi ENE 1.2 mph - N/A Rain Light Rain
5:00 PM 69.8 °F - 68.0 °F 94% 29.97 in 5.0 mi Calm Calm - N/A Rain Light Rain
6:00 PM 70 °F - 68 °F 92% 29.89 in 9 mi ENE 3.5 mph - - Rain Light Rain
6:00 PM 69.8 °F - 68.0 °F 94% 29.99 in 6.2 mi ENE 3.5 mph - N/A   Light Drizzle
7:00 PM 68.0 °F - 64.4 °F 88% 30.01 in 6.2 mi East 9.2 mph - N/A Rain Rain
8:00 PM 68.0 °F - 62.6 °F 83% 30.02 in 6.2 mi East 8.1 mph - N/A Rain Rain
9:00 PM 68 °F - 62 °F 74% 29.83 in 12 mi ESE 10.4 mph - -   Clear
9:00 PM 68.0 °F - 62.6 °F 83% 30.01 in - ESE 10.4 mph - N/A   Clear
10:00 PM 69.8 °F - 60.8 °F 73% 30.00 in - East 9.2 mph - N/A   Clear
11:00 PM 69.8 °F - 62.6 °F 78% 29.99 in - NNE 2.3 mph - N/A   Clear